Zurück zum Katalog

FENGYUN 1C DEB

LostSSO
NORAD 37710·DEBRIS·🇨🇳 China

Gestartet May 10, 1999 von Taiyuan Satellite Launch Center

Loading…

Nächste Überflüge (nächste 24 Stunden)

TLE

VeraltetSource: Space-Track

Epoche: Sep 11, 2024, 05:10 UTC

1 37710U 99025EMB 24255.21537237  .00003363  00000-0  36308-2 0  9998
2 37710  99.1405 248.3570 0263105 257.9323 162.3116 13.60001574502740

Verfolge FENGYUN 1C DEB in Echtzeit mit AllMySat

Download on the App Store